Voltar ao catálogo

STARLINK-30379

AtivoComunicaçõesVLEO
NORAD 57811·PAYLOAD·🇺🇸 United States

Lançado Sep 9, 2023 de Cape Canaveral Space Force Station

Loading…

Próximas Passagens (próximas 24 horas)

TLE

AtualizadoSource: CelesTrak SupGP

Época: Sep 14, 2026, 21:23 UTC

1 57811C 23138D   26257.89145833  .00039470  00000+0  14297-2 0  2576
2 57811  43.0021 245.6354 0001306 264.6908 134.5212 15.27555706    10

Acompanhe STARLINK-30379 em tempo real com AllMySat

Download on the App Store